Погода в Песковке

Россия / Кировская область     59°02′47″N   52°21′33″E
темп.,
°C
ветер,
м/с
пор.,
м/с
влажн.,
%
обл.,
%
осадки,
мм/ч
давл.,
гПа
погр.,
м
20 июня, вс
вс2000:00+18сз4128318 0.0 1015633
03:00+13ссз310685 0.0 1018363
06:00+14с48530 0.0 1020619
09:00+18ссз47425 0.0 10211244
12:00+21ссз47365 0.0 10211836
15:00+22ссз46335 0.0 10211867
18:00+20ссз235598 0.0 1021115
21:00+14в1164100 0.0 102211
21 июня, пн
пн2100:00+13ю226237 0.0 102225
03:00+13ююв226643 0.0 102241
06:00+18ю37646 0.1 1021300
09:00+21ююз367092 0.1 1019573
12:00+27зюз464965 0.0 10181512
15:00+25зсз226098 0.0 1016348
18:00+23юз25805 0.8 1016157
21:00+19юз369054 1.1 101795
22 июня, вт
вт2200:00+18з259424 0.0 101884
03:00+17зсз22905 0.0 101841
06:00+22зсз26715 0.0 1018193
09:00+28сз35456 0.0 1018899
12:00+31ссз353667 0.0 10183038
15:00+31сз36348 0.0 10182754
18:00+27зсз11607 0.0 101721
21:00+20ю227966 0.0 101823
23 июня, ср
ср2300:00+21з257338 0.1 101794
03:00+18зсз27895 0.1 1018129
06:00+22сз36716 0.0 1017324
09:00+26ссз34565 0.0 1017891
12:00+29ссз35447 0.0 10171920
15:00+30ссз4541100 0.0 10172355
18:00+27ссв25605 0.0 1016241
21:00+21ююв23835 0.0 101770
24 июня, чт
чт2400:00+18ююз119782 1.7 101821
03:00+18с119765 2.3 101812
06:00+21ю249183 0.0 1018291
09:00+25ю236599 0.0 1018885
12:00+28ююз335464 0.4 10181557
15:00+23ю368743 3.9 1018188
18:00+21юз61293100 1.3 1018582
21:00+18ю2398100 8.5 101659